{"data":{"norad_id":68717,"intl_designator":"2026-081U","name":"STARLINK-36685","alt_names":[],"object_type":"PAYLOAD","status":"ACTIVE","operator":null,"country":"US","launch_date":"2026-04-14","launch_site_code":"AFETR","launch_vehicle":null,"mission":null,"orbit_class":"UNKNOWN","rcs_meters":null,"size_class":null,"mass_kg":null,"dimensions":null,"purposes":["comms"],"wikipedia_slug":null,"has_3d_model":false,"image_url":null,"decayed_at":null,"tle_current":{"epoch":"2026-09-20T03:16:14.096064Z","epoch_age_seconds":75710,"freshness":"FRESH","line1":"1 68717U 26081U   26263.13627426  .00013091  00000+0  39787-3 0  9996","line2":"2 68717  53.1588 207.3423 0001624  83.3576 276.7611 15.34403697 24566","mean_motion":15.34403697,"eccentricity":0.0001624,"inclination_deg":53.1588,"raan_deg":207.3423,"arg_perigee_deg":83.3576,"mean_anomaly_deg":276.7611,"bstar":0.00039787,"rev_number":2456,"period_min":93.847531964073,"perigee_km":461.58130129554,"apogee_km":463.80320263658,"semimajor_km":6840.8292519661,"source":"CELESTRAK","updated_at":"2026-09-20T09:00:43.985322Z"}}}